GW5000 Weather Reports


time (UTC)temp
C
wind
direction
speed
KPH
gust
KPH
rain 1hr
cm
rain 24hr
cm
rain mn
cm
humidity
%
barometer
mb
20260507151526 15 251 1.6 6.4 0.00 0.00 0.00 90 1017.4
20260507150026 15 285 0.0 0.0 0.00 0.00 0.00 91 1017.3
20260507144519 14 309 0.0 1.6 0.00 0.00 0.00 92 1017.3
20260507143023 14 350 0.0 0.0 0.00 0.00 0.00 93 1017.3
20260507141527 13 350 0.0 0.0 0.00 0.00 0.00 94 1017.1
20260507140004 13 350 0.0 0.0 0.00 0.00 0.00 94 1016.8
20260507134503 13 350 0.0 0.0 0.00 0.00 0.00 93 1016.8
20260507133003 13 350 0.0 0.0 0.00 0.00 0.00 93 1016.7
20260507131504 12 350 0.0 0.0 0.00 0.00 0.00 93 1016.8
20260507130005 12 350 0.0 0.0 0.00 0.00 0.00 93 1016.7
20260507124511 12 350 0.0 0.0 0.00 0.00 0.00 92 1016.6
20260507123004 13 350 0.0 0.0 0.00 0.00 0.00 92 1016.4
20260507121504 13 350 0.0 0.0 0.00 0.00 0.00 92 1016.4
20260507120005 13 350 0.0 0.0 0.00 0.00 0.00 91 1016.4
20260507114507 13 350 0.0 0.0 0.00 0.00 0.00 91 1016.4
20260507113005 13 350 0.0 0.0 0.00 0.00 0.00 91 1016.4
20260507111506 13 350 0.0 0.0 0.00 0.00 0.00 92 1016.5
20260507110010 13 350 0.0 0.0 0.00 0.00 0.00 92 1016.6
20260507104504 13 350 0.0 0.0 0.00 0.00 0.00 92 1016.7
20260507103008 13 350 0.0 0.0 0.00 0.00 0.00 92 1016.9
20260507101510 13 350 0.0 0.0 0.00 0.00 0.00 92 1017.0
20260507100005 13 350 0.0 0.0 0.00 0.00 0.00 92 1016.8
20260507094507 13 350 0.0 0.0 0.00 0.00 0.00 91 1017.0
20260507093007 13 350 0.0 0.0 0.00 0.00 0.00 91 1017.2
20260507091521 13 350 0.0 0.0 0.00 0.00 0.00 92 1017.3
20260507090008 13 350 0.0 0.0 0.00 0.00 0.00 91 1017.4
20260507084503 13 350 0.0 0.0 0.00 0.00 0.00 91 1017.7
20260507083006 13 350 0.0 0.0 0.00 0.00 0.00 90 1017.9
20260507081508 13 350 0.0 0.0 0.00 0.00 0.00 90 1017.9
20260507080009 14 350 0.0 0.0 0.00 0.00 0.00 91 1018.0
20260507074512 14 350 0.0 0.0 0.00 0.00 0.00 90 1018.0
20260507073006 14 350 0.0 0.0 0.00 0.00 0.00 89 1017.9
20260507071510 14 350 0.0 0.0 0.00 0.00 0.00 90 1017.9
20260507070013 14 350 0.0 0.0 0.00 0.00 0.00 89 1018.0
20260507064514 14 350 0.0 0.0 0.00 0.00 0.00 89 1018.2
20260507063011 15 350 0.0 0.0 0.00 0.00 0.00 89 1018.2
20260507061527 15 350 0.0 0.0 0.00 0.00 0.00 88 1018.2
20260507060025 15 350 0.0 0.0 0.00 0.00 0.00 87 1018.3
20260507054517 15 350 0.0 0.0 0.00 0.00 0.00 87 1018.3
20260507053016 15 350 0.0 0.0 0.00 0.00 0.00 86 1018.3
20260507051517 15 350 0.0 0.0 0.00 0.00 0.00 85 1018.3
20260507050028 15 350 0.0 0.0 0.00 0.00 0.00 84 1018.3
20260507044534 15 350 0.0 3.2 0.00 0.00 0.00 84 1018.2
20260507043018 16 331 0.0 3.2 0.00 0.00 0.00 83 1018.0
20260507041516 16 329 0.0 3.2 0.00 0.00 0.00 82 1017.9
20260507040022 16 279 0.0 3.2 0.00 0.00 0.00 82 1017.9
20260507034519 16 281 0.0 3.2 0.00 0.00 0.00 81 1017.7
20260507033021 16 360 1.6 4.8 0.00 0.00 0.00 81 1017.6
20260507031518 16 352 3.2 11.3 0.00 0.00 0.00 80 1017.5
20260507030020 16 268 3.2 6.4 0.00 0.00 0.00 80 1017.4
20260507024520 17 246 3.2 9.7 0.00 0.00 0.00 80 1017.3
20260507023020 17 232 4.8 11.3 0.00 0.00 0.00 79 1017.2
20260507021521 18 13 1.6 14.5 0.00 0.00 0.00 77 1017.3
20260507020018 18 352 4.8 14.5 0.00 0.00 0.00 74 1017.2
20260507014526 19 9 4.8 11.3 0.00 0.00 0.00 72 1017.2
20260507013016 19 288 4.8 11.3 0.00 0.00 0.00 70 1017.1
20260507011528 20 284 4.8 20.9 0.00 0.00 0.00 69 1017.1
20260507010003 20 81 4.8 12.9 0.00 0.00 0.00 67 1017.1
20260507004511 20 262 6.4 17.7 0.00 0.00 0.00 64 1017.0
20260507003016 21 17 6.4 16.1 0.00 0.00 0.00 62 1017.0
20260507001521 20 331 6.4 17.7 0.00 0.00 0.00 63 1016.8
20260507000005 20 250 6.4 20.9 0.00 0.00 0.00 63 1016.7
20260506234508 21 352 4.8 19.3 0.00 0.00 0.00 65 1016.6
20260506233012 20 300 3.2 22.5 0.00 0.00 0.00 65 1016.5
20260506231518 21 331 6.4 20.9 0.00 0.00 0.00 64 1016.8
20260506230020 21 35 4.8 17.7 0.00 0.00 0.00 64 1016.7
20260506224511 21 261 8.0 19.3 0.00 0.00 0.00 62 1016.8
20260506223012 21 10 6.4 19.3 0.00 0.00 0.00 63 1017.0
20260506221520 20 40 6.4 20.9 0.00 0.00 0.00 63 1017.2
20260506220030 21 277 8.0 24.1 0.00 0.00 0.00 61 1017.3
20260506214527 21 266 8.0 20.9 0.00 0.00 0.00 60 1017.5
20260506213015 21 221 11.3 22.5 0.00 0.00 0.00 60 1017.4
20260506211516 21 259 9.7 24.1 0.00 0.00 0.00 61 1017.4
20260506210021 21 292 6.4 19.3 0.00 0.00 0.00 61 1017.5
20260506204526 20 19 6.4 20.9 0.00 0.00 0.00 62 1017.6
20260506203026 21 239 6.4 19.3 0.00 0.00 0.00 61 1017.7
20260506201519 21 360 12.9 20.9 0.00 0.00 0.00 60 1017.8
20260506200025 21 332 11.3 20.9 0.00 0.00 0.00 61 1017.8
20260506194523 20 318 8.0 19.3 0.00 0.00 0.00 62 1017.8
20260506193030 20 238 6.4 20.9 0.00 0.00 0.00 62 1018.0
20260506191528 20 260 6.4 19.3 0.00 0.00 0.00 62 1018.0
20260506190019 20 35 3.2 14.5 0.00 0.00 0.00 63 1018.1
20260506184527 19 34 4.8 17.7 0.00 0.00 0.00 64 1018.2
20260506183026 19 330 6.4 17.7 0.00 0.00 0.00 64 1018.2
20260506181526 19 227 9.7 17.7 0.00 0.00 0.00 62 1018.3
20260506180028 20 279 8.0 17.7 0.00 0.00 0.00 62 1018.4
20260506174520 20 299 8.0 17.7 0.00 0.00 0.00 62 1018.5
20260506173005 19 24 4.8 16.1 0.00 0.00 0.00 64 1018.6
20260506171539 19 159 3.2 12.9 0.00 0.00 0.00 64 1018.9
20260506170017 18 240 6.4 12.9 0.00 0.00 0.00 64 1018.9
20260506164524 18 240 4.8 12.9 0.00 0.00 0.00 66 1018.8
20260506163038 18 314 1.6 9.7 0.00 0.00 0.00 67 1018.9
20260506161510 17 287 1.6 8.0 0.00 0.00 0.00 69 1018.8
20260506160015 17 284 3.2 6.4 0.00 0.00 0.00 69 1018.9
20260506154527 16 279 0.0 3.2 0.00 0.00 0.00 71 1018.8
20260506153021 16 340 0.0 1.6 0.00 0.00 0.00 74 1018.9